Location: Battersea Observatory
(44.4318°N, 76.3841°W)
Time: 22:57:54
(UTC-04:00)

Tiros 1 despin weight - Pass Details

Date: 26 January 2022
Orbit: 592 x 639 km, 48.2° (Epoch: 25 May)

Event Time Altitude Azimuth Distance (km) Brightness Sun altitude
Rises 23:10:28 0° 285° (WNW) 2,932 - -60.4°
Reaches altitude 10° 23:13:23 10° 267° (W) 2,025 - -60.7°
Maximum altitude 23:16:33 18° 224° (SW) 1,553 - -61.0°
Drops below altitude 10° 23:19:44 10° 181° (S) 2,023 - -61.3°
Sets 23:22:39 0° 163° (SSE) 2,927 - -61.6°
